Time,TemperatureF,DewpointF,PressureIn,WindDirection,WindDirectionDegrees,WindSpeedMPH,WindSpeedGustMPH,Humidity,HourlyPrecipIn,Conditions,Clouds,dailyrainin,SoftwareType,DateUTC
2017-10-17 00:05:00,54.6,53.0,30.30,SSW,198,0.0,0.0,94,0.00,,,0.00,weatherlink.com 1.10,2017-10-16 22:05:00,
2017-10-17 00:20:00,55.2,54.0,30.30,SSW,198,0.0,0.0,94,0.00,,,0.00,weatherlink.com 1.10,2017-10-16 22:20:00,
2017-10-17 00:35:00,54.0,52.0,30.29,SSW,198,0.0,0.0,94,0.00,,,0.00,weatherlink.com 1.10,2017-10-16 22:35:00,
2017-10-17 00:50:00,53.7,52.0,30.29,SSW,198,0.0,0.0,94,0.00,,,0.00,weatherlink.com 1.10,2017-10-16 22:50:00,
2017-10-17 01:05:00,54.1,53.0,30.29,SSW,198,0.0,0.0,95,0.00,,,0.00,weatherlink.com 1.10,2017-10-16 23:05:00,
2017-10-17 01:23:00,54.5,53.0,30.29,SSW,198,0.0,0.0,95,0.00,,,0.00,weatherlink.com 1.10,2017-10-16 23:23:00,
2017-10-17 01:40:00,56.9,56.0,30.29,SSW,198,0.0,0.0,96,0.00,,,0.00,weatherlink.com 1.10,2017-10-16 23:40:00,
2017-10-17 01:59:00,58.3,57.0,30.29,SSW,198,0.0,0.0,96,0.00,,,0.00,weatherlink.com 1.10,2017-10-16 23:59:00,
2017-10-17 02:06:00,59.5,58.0,30.29,SSW,198,0.0,0.0,96,0.00,,,0.00,weatherlink.com 1.10,2017-10-17 00:06:00,
2017-10-17 02:30:00,59.7,58.0,30.29,WSW,254,0.0,4.0,95,0.00,,,0.00,weatherlink.com 1.10,2017-10-17 00:30:00,
2017-10-17 02:37:00,59.6,58.0,30.29,WSW,254,0.0,0.0,95,0.00,,,0.00,weatherlink.com 1.10,2017-10-17 00:37:00,
2017-10-17 02:51:00,59.4,58.0,30.28,WSW,253,0.0,1.0,95,0.00,,,0.00,weatherlink.com 1.10,2017-10-17 00:51:00,
2017-10-17 03:06:00,59.6,58.0,30.28,WSW,257,0.0,0.0,95,0.00,,,0.00,weatherlink.com 1.10,2017-10-17 01:06:00,
2017-10-17 03:21:00,59.6,58.0,30.27,WSW,257,0.0,0.0,95,0.00,,,0.00,weatherlink.com 1.10,2017-10-17 01:21:00,
2017-10-17 03:36:00,59.6,58.0,30.27,WSW,244,1.0,4.0,95,0.00,,,0.00,weatherlink.com 1.10,2017-10-17 01:36:00,
2017-10-17 03:51:00,59.8,58.0,30.27,SW,233,0.0,2.0,94,0.00,,,0.00,weatherlink.com 1.10,2017-10-17 01:51:00,
2017-10-17 04:06:00,60.5,59.0,30.26,SW,233,0.0,1.0,94,0.00,,,0.00,weatherlink.com 1.10,2017-10-17 02:06:00,
2017-10-17 04:21:00,60.9,59.0,30.27,SW,233,0.0,0.0,94,0.00,,,0.00,weatherlink.com 1.10,2017-10-17 02:21:00,
2017-10-17 04:36:00,61.3,59.0,30.26,SW,232,0.0,2.0,93,0.00,,,0.00,weatherlink.com 1.10,2017-10-17 02:36:00,
2017-10-17 04:51:00,62.0,60.0,30.26,SW,236,3.0,5.0,92,0.00,,,0.00,weatherlink.com 1.10,2017-10-17 02:51:00,
2017-10-17 05:08:00,62.5,60.0,30.26,WSW,244,0.0,2.0,91,0.00,,,0.00,weatherlink.com 1.10,2017-10-17 03:08:00,
2017-10-17 05:27:00,62.7,60.0,30.26,WSW,244,0.0,0.0,91,0.00,,,0.00,weatherlink.com 1.10,2017-10-17 03:27:00,
2017-10-17 05:37:00,62.7,60.0,30.26,WSW,244,0.0,0.0,91,0.00,,,0.00,weatherlink.com 1.10,2017-10-17 03:37:00,
2017-10-17 05:51:00,62.6,60.0,30.26,WSW,244,0.0,0.0,91,0.00,,,0.00,weatherlink.com 1.10,2017-10-17 03:51:00,
2017-10-17 06:06:00,62.6,60.0,30.26,WSW,244,0.0,1.0,90,0.00,,,0.00,weatherlink.com 1.10,2017-10-17 04:06:00,
2017-10-17 06:21:00,62.4,60.0,30.25,WSW,244,0.0,1.0,90,0.00,,,0.00,weatherlink.com 1.10,2017-10-17 04:21:00,
2017-10-17 06:36:00,62.4,60.0,30.26,WSW,244,0.0,0.0,90,0.00,,,0.00,weatherlink.com 1.10,2017-10-17 04:36:00,
2017-10-17 06:51:00,61.7,59.0,30.26,WSW,244,0.0,0.0,89,0.00,,,0.00,weatherlink.com 1.10,2017-10-17 04:51:00,
2017-10-17 07:06:00,60.8,58.0,30.26,WSW,244,0.0,0.0,89,0.00,,,0.00,weatherlink.com 1.10,2017-10-17 05:06:00,
2017-10-17 07:21:00,60.1,57.0,30.26,WSW,244,0.0,0.0,90,0.00,,,0.00,weatherlink.com 1.10,2017-10-17 05:21:00,
2017-10-17 07:36:00,59.8,57.0,30.26,WSW,244,0.0,0.0,90,0.00,,,0.00,weatherlink.com 1.10,2017-10-17 05:36:00,
2017-10-17 07:51:00,59.0,56.0,30.26,WSW,244,0.0,0.0,91,0.00,,,0.00,weatherlink.com 1.10,2017-10-17 05:51:00,
2017-10-17 08:06:00,58.5,56.0,30.27,WSW,244,0.0,0.0,91,0.00,,,0.00,weatherlink.com 1.10,2017-10-17 06:06:00,
2017-10-17 08:21:00,58.7,56.0,30.27,WSW,244,0.0,0.0,92,0.00,,,0.00,weatherlink.com 1.10,2017-10-17 06:21:00,
2017-10-17 08:29:00,59.2,57.0,30.27,WSW,244,0.0,0.0,93,0.00,,,0.00,weatherlink.com 1.10,2017-10-17 06:29:00,
2017-10-17 08:37:00,59.8,58.0,30.27,WSW,244,0.0,0.0,93,0.00,,,0.00,weatherlink.com 1.10,2017-10-17 06:37:00,
2017-10-17 08:52:00,61.4,59.0,30.27,WSW,244,0.0,0.0,93,0.00,,,0.00,weatherlink.com 1.10,2017-10-17 06:52:00,
2017-10-17 09:07:00,63.3,59.0,30.27,West,281,0.0,4.0,85,0.00,,,0.00,weatherlink.com 1.10,2017-10-17 07:07:00,
2017-10-17 09:22:00,64.2,58.0,30.28,WNW,291,0.0,7.0,80,0.00,,,0.00,weatherlink.com 1.10,2017-10-17 07:22:00,
2017-10-17 09:37:00,65.5,58.0,30.28,WNW,297,0.0,3.0,77,0.00,,,0.00,weatherlink.com 1.10,2017-10-17 07:37:00,
2017-10-17 09:52:00,67.0,58.0,30.28,NNW,345,0.0,0.0,74,0.00,,,0.00,weatherlink.com 1.10,2017-10-17 07:52:00,
2017-10-17 10:07:00,68.3,59.0,30.27,NNW,329,0.0,0.0,73,0.00,,,0.00,weatherlink.com 1.10,2017-10-17 08:07:00,
2017-10-17 10:22:00,69.3,60.0,30.27,NNW,338,0.0,0.0,72,0.00,,,0.00,weatherlink.com 1.10,2017-10-17 08:22:00,
2017-10-17 10:37:00,69.6,61.0,30.27,ENE,65,0.0,0.0,74,0.00,,,0.00,weatherlink.com 1.10,2017-10-17 08:37:00,
2017-10-17 10:52:00,69.5,62.0,30.27,ENE,65,0.0,0.0,76,0.00,,,0.00,weatherlink.com 1.10,2017-10-17 08:52:00,
2017-10-17 11:07:00,70.5,63.0,30.27,ENE,59,0.0,0.0,76,0.00,,,0.00,weatherlink.com 1.10,2017-10-17 09:07:00,
2017-10-17 11:22:00,70.6,63.0,30.27,ENE,65,0.0,0.0,78,0.00,,,0.00,weatherlink.com 1.10,2017-10-17 09:22:00,
2017-10-17 11:38:00,70.4,63.0,30.26,NE,49,2.0,8.0,77,0.00,,,0.00,weatherlink.com 1.10,2017-10-17 09:38:00,
2017-10-17 11:53:00,69.8,63.0,30.26,ENE,58,6.0,9.0,78,0.00,,,0.00,weatherlink.com 1.10,2017-10-17 09:53:00,
2017-10-17 12:08:00,69.4,63.0,30.26,NE,53,3.0,10.0,80,0.00,,,0.00,weatherlink.com 1.10,2017-10-17 10:08:00,
2017-10-17 12:23:00,70.9,63.0,30.26,East,99,3.0,10.0,77,0.00,,,0.00,weatherlink.com 1.10,2017-10-17 10:23:00,
2017-10-17 12:38:00,71.4,63.0,30.25,ENE,75,1.0,11.0,75,0.00,,,0.00,weatherlink.com 1.10,2017-10-17 10:38:00,
2017-10-17 12:53:00,71.7,64.0,30.25,East,93,6.0,10.0,76,0.00,,,0.00,weatherlink.com 1.10,2017-10-17 10:53:00,
2017-10-17 13:08:00,71.6,64.0,30.24,SE,124,4.0,13.0,76,0.00,,,0.00,weatherlink.com 1.10,2017-10-17 11:08:00,
2017-10-17 13:23:00,71.1,64.0,30.24,East,101,7.0,14.0,77,0.00,,,0.00,weatherlink.com 1.10,2017-10-17 11:23:00,
2017-10-17 13:38:00,71.6,64.0,30.23,East,86,2.0,12.0,77,0.00,,,0.00,weatherlink.com 1.10,2017-10-17 11:38:00,
2017-10-17 13:53:00,71.7,64.0,30.23,ESE,108,6.0,12.0,77,0.00,,,0.00,weatherlink.com 1.10,2017-10-17 11:53:00,
2017-10-17 14:08:00,71.6,64.0,30.22,East,85,4.0,11.0,77,0.00,,,0.00,weatherlink.com 1.10,2017-10-17 12:08:00,
2017-10-17 14:23:00,71.7,64.0,30.21,East,86,8.0,12.0,77,0.00,,,0.00,weatherlink.com 1.10,2017-10-17 12:23:00,
2017-10-17 14:38:00,72.2,64.0,30.21,ENE,76,8.0,11.0,75,0.00,,,0.00,weatherlink.com 1.10,2017-10-17 12:38:00,
2017-10-17 14:53:00,72.1,64.0,30.20,ESE,103,7.0,13.0,76,0.00,,,0.00,weatherlink.com 1.10,2017-10-17 12:53:00,
2017-10-17 15:08:00,71.9,64.0,30.20,East,93,4.0,14.0,76,0.00,,,0.00,weatherlink.com 1.10,2017-10-17 13:08:00,
2017-10-17 15:23:00,72.2,64.0,30.19,ENE,73,7.0,12.0,75,0.00,,,0.00,weatherlink.com 1.10,2017-10-17 13:23:00,
2017-10-17 15:38:00,72.1,64.0,30.19,East,82,7.0,14.0,75,0.00,,,0.00,weatherlink.com 1.10,2017-10-17 13:38:00,
2017-10-17 15:53:00,72.6,64.0,30.18,East,84,5.0,12.0,75,0.00,,,0.00,weatherlink.com 1.10,2017-10-17 13:53:00,
2017-10-17 16:08:00,72.9,64.0,30.18,East,94,4.0,12.0,73,0.00,,,0.00,weatherlink.com 1.10,2017-10-17 14:08:00,
2017-10-17 16:23:00,72.7,64.0,30.18,East,97,7.0,10.0,73,0.00,,,0.00,weatherlink.com 1.10,2017-10-17 14:23:00,
2017-10-17 16:38:00,72.6,64.0,30.18,East,101,6.0,9.0,75,0.00,,,0.00,weatherlink.com 1.10,2017-10-17 14:38:00,
2017-10-17 16:53:00,72.3,63.0,30.17,East,99,4.0,11.0,73,0.00,,,0.00,weatherlink.com 1.10,2017-10-17 14:53:00,
2017-10-17 17:23:00,72.1,64.0,30.17,East,89,4.0,10.0,75,0.00,,,0.00,weatherlink.com 1.10,2017-10-17 15:23:00,
2017-10-17 17:38:00,71.4,64.0,30.17,SE,138,4.0,10.0,76,0.00,,,0.00,weatherlink.com 1.10,2017-10-17 15:38:00,
2017-10-17 17:53:00,71.2,63.0,30.17,East,101,4.0,11.0,76,0.00,,,0.00,weatherlink.com 1.10,2017-10-17 15:53:00,
2017-10-17 18:08:00,70.8,63.0,30.17,SE,142,9.0,11.0,77,0.00,,,0.00,weatherlink.com 1.10,2017-10-17 16:08:00,
2017-10-17 18:23:00,70.2,63.0,30.17,SSE,158,1.0,7.0,78,0.00,,,0.00,weatherlink.com 1.10,2017-10-17 16:23:00,
2017-10-17 18:38:00,69.7,63.0,30.17,SE,130,0.0,4.0,79,0.00,,,0.00,weatherlink.com 1.10,2017-10-17 16:38:00,
2017-10-17 18:53:00,69.2,63.0,30.17,SE,144,0.0,0.0,80,0.00,,,0.00,weatherlink.com 1.10,2017-10-17 16:53:00,
2017-10-17 19:08:00,68.8,62.0,30.17,SE,138,0.0,0.0,80,0.00,,,0.00,weatherlink.com 1.10,2017-10-17 17:08:00,
2017-10-17 19:23:00,68.2,62.0,30.17,SSW,195,0.0,0.0,81,0.00,,,0.00,weatherlink.com 1.10,2017-10-17 17:23:00,
2017-10-17 19:38:00,67.5,62.0,30.17,SSW,193,0.0,0.0,82,0.00,,,0.00,weatherlink.com 1.10,2017-10-17 17:38:00,
2017-10-17 19:53:00,67.2,62.0,30.18,SSW,194,0.0,0.0,83,0.00,,,0.00,weatherlink.com 1.10,2017-10-17 17:53:00,